This is the latest recevied weather packets stored in our database for station/object K3PPP. If no packets are shown the sender has not sent any weather packets the latest 10 day(s).
| Time | Temp. | Humidity | Pressure | Rain* | Wind** | Luminosity | Snow |
|---|---|---|---|---|---|---|---|
| 1777511138 | 11.11° C | 99% | 1009 hPa | 0 mm | - | 0 W/m² | - |
| 1777510833 | 11.11° C | 99% | 1008.9 hPa | 0 mm | - | 0 W/m² | - |
| 1777510530 | 11.11° C | 99% | 1008.8 hPa | 0 mm | - | 0 W/m² | - |
| 1777510226 | 11.11° C | 99% | 1008.7 hPa | 0 mm | - | 0 W/m² | - |
| 1777509923 | 11.67° C | 99% | 1008.7 hPa | 0 mm | - | 0 W/m² | - |
| 1777509618 | 11.67° C | 99% | 1008.7 hPa | 0 mm | - | 0 W/m² | - |
| 1777509315 | 11.67° C | 99% | 1008.6 hPa | 0 mm | - | 0 W/m² | - |
| 1777509013 | 11.67° C | 99% | 1008.7 hPa | 0 mm | - | 0 W/m² | - |
| 1777508710 | 11.67° C | 99% | 1008.4 hPa | 0 mm | - | 0 W/m² | - |
| 1777508407 | 11.67° C | 99% | 1008.5 hPa | 0 mm | - | 0 W/m² | - |
| 1777508104 | 11.67° C | 99% | 1008.5 hPa | 0 mm | - | 1 W/m² | - |
| 1777507800 | 11.67° C | 99% | 1008.2 hPa | 0 mm | - | 1 W/m² | - |
| 1777507497 | 11.67° C | 99% | 1008.4 hPa | 0 mm | - | 2 W/m² | - |
| 1777507194 | 11.67° C | 99% | 1008.4 hPa | 0 mm | - | 3 W/m² | - |
| 1777506892 | 11.67° C | 99% | 1008 hPa | 4.83 mm | - | 4 W/m² | - |
| 1777506589 | 11.67° C | 99% | 1008.2 hPa | 7.87 mm | - | 3 W/m² | - |
| 1777506284 | 11.67° C | 99% | 1007.8 hPa | 4.83 mm | - | 7 W/m² | - |
| 1777505981 | 11.67° C | 99% | 1007.6 hPa | 3.05 mm | - | 3 W/m² | - |
| 1777505676 | 11.67° C | 99% | 1007.9 hPa | 3.05 mm | - | 4 W/m² | - |
| 1777505374 | 11.67° C | 99% | 1007.9 hPa | 6.6 mm | - | 10 W/m² | - |
| 1777505070 | 11.67° C | 99% | 1007.9 hPa | 6.1 mm | - | 9 W/m² | - |
| 1777504767 | 12.22° C | 99% | 1008 hPa | 1.27 mm | - | 7 W/m² | - |
| 1777504465 | 12.22° C | 99% | 1007.9 hPa | 0 mm | - | 8 W/m² | - |
| 1777504160 | 12.78° C | 99% | 1007.6 hPa | 0 mm | - | 28 W/m² | - |
| 1777503856 | 12.78° C | 99% | 1008 hPa | 0 mm | - | 18 W/m² | - |
* Rain latest hour (hover to see other rain measurements)
** Current wind speed in m/s (hover to see current wind gust speed)